When you browse on this site, cookies collect data to enhance your experience and personalize the content and advertising you see.
Visit our Privacy Policy to learn more. By continuing to use the site, you agree to this use of cookies and data.
  • In Hungary
  • List of Countries
  • For 7 days
  • Water Temperature
  • Weather Map
  • News
  • Weather Widgets
  • user-avatar
    Login

    Hourly Weather Druzhnyy

    Today, 18 October, Friday

    Time Temperature Precipitation Wind Pressure Humidity
    00:00 +16°C° 0 mm 0 mps 761 mmHg 69%
    01:00 +15°C° 0 mm 0 mps 761 mmHg 70%
    02:00 +15°C° 0 mm 0 mps 761 mmHg 71%
    03:00 +15°C° 0 mm 0 mps 761 mmHg 74%
    04:00 +15°C° 0 mm 0 mps 761 mmHg 75%
    05:00 +14°C° 0 mm 0 mps 761 mmHg 76%
    06:00 +14°C° 0 mm 0 mps 761 mmHg 76%
    07:00 +16°C° 0 mm 0 mps 761 mmHg 71%
    08:00 +17°C° 0 mm 0 mps 761 mmHg 65%
    09:00 +18°C° 0 mm 0 mps 761 mmHg 60%
    10:00 +20°C° 0 mm 0 mps 761 mmHg 54%
    11:00 +22°C° 0 mm 0 mps 761 mmHg 48%
    12:00 +23°C° 0 mm 0 mps 761 mmHg 43%
    13:00 +24°C° 0 mm 0 mps 761 mmHg 41%
    14:00 +25°C° 0 mm 0 mps 761 mmHg 39%
    15:00 +27°C° 0 mm 1 mps 760 mmHg 37%
    16:00 +24°C° 0 mm 0 mps 760 mmHg 41%
    17:00 +22°C° 0 mm 0 mps 760 mmHg 45%
    18:00 +21°C° 0 mm 0 mps 760 mmHg 49%
    19:00 +20°C° 0 mm 0 mps 760 mmHg 51%
    20:00 +21°C° 0 mm 1 mps 760 mmHg 54%
    21:00 +21°C° 0 mm 1 mps 761 mmHg 56%
    22:00 +20°C° 0 mm 1 mps 761 mmHg 59%
    23:00 +20°C° 0 mm 1 mps 761 mmHg 61%

    Tomorrow, 19 October, Saturday

    Time Temperature Precipitation Wind Pressure Humidity
    00:00 +19°C° 0 mm 1 mps 761 mmHg 63%
    01:00 +19°C° 0 mm 1 mps 761 mmHg 65%
    02:00 +18°C° 0 mm 1 mps 761 mmHg 67%
    03:00 +16°C° 0 mm 1 mps 761 mmHg 69%
    04:00 +16°C° 0 mm 1 mps 761 mmHg 70%
    05:00 +16°C° 0 mm 1 mps 761 mmHg 71%
    06:00 +16°C° 0 mm 1 mps 762 mmHg 73%
    07:00 +18°C° 0 mm 1 mps 762 mmHg 69%
    08:00 +17°C° 0 mm 0 mps 762 mmHg 65%
    09:00 +19°C° 0 mm 0 mps 762 mmHg 61%
    10:00 +20°C° 0 mm 0 mps 762 mmHg 56%
    11:00 +22°C° 0 mm 0 mps 762 mmHg 51%
    12:00 +24°C° 0 mm 0 mps 762 mmHg 46%
    13:00 +26°C° 0 mm 1 mps 762 mmHg 44%
    14:00 +26°C° 0 mm 1 mps 762 mmHg 43%
    15:00 +27°C° 0 mm 2 mps 762 mmHg 42%
    16:00 +25°C° 0 mm 1 mps 762 mmHg 46%
    17:00 +24°C° 0 mm 1 mps 762 mmHg 50%
    18:00 +22°C° 0 mm 1 mps 762 mmHg 53%
    19:00 +22°C° 0 mm 1 mps 762 mmHg 55%
    20:00 +21°C° 0 mm 1 mps 762 mmHg 57%
    21:00 +19°C° 0 mm 2 mps 762 mmHg 58%
    22:00 +19°C° 0 mm 2 mps 762 mmHg 60%
    23:00 +18°C° 0 mm 2 mps 763 mmHg 61%

    Day after tomorrow, 20 October, Sunday

    Time Temperature Precipitation Wind Pressure Humidity
    00:00 +19°C° 0 mm 1 mps 763 mmHg 63%
    01:00 +18°C° 0 mm 1 mps 763 mmHg 64%
    02:00 +18°C° 0 mm 1 mps 763 mmHg 65%
    03:00 +16°C° 0 mm 1 mps 763 mmHg 67%
    04:00 +16°C° 0 mm 1 mps 763 mmHg 68%
    05:00 +16°C° 0 mm 1 mps 763 mmHg 69%
    06:00 +15°C° 0 mm 1 mps 763 mmHg 70%
    07:00 +18°C° 0 mm 1 mps 763 mmHg 66%
    08:00 +19°C° 0 mm 1 mps 763 mmHg 62%
    09:00 +20°C° 0 mm 1 mps 764 mmHg 58%
    10:00 +22°C° 0 mm 1 mps 764 mmHg 54%
    11:00 +23°C° 0 mm 2 mps 764 mmHg 49%
    12:00 +25°C° 0 mm 2 mps 764 mmHg 45%
    13:00 +25°C° 0 mm 2 mps 763 mmHg 43%
    14:00 +26°C° 0 mm 2 mps 763 mmHg 42%
    15:00 +27°C° 0 mm 3 mps 763 mmHg 40%
    16:00 +25°C° 0 mm 3 mps 763 mmHg 44%
    17:00 +24°C° 0 mm 3 mps 763 mmHg 48%
    18:00 +21°C° 0 mm 3 mps 763 mmHg 53%
    19:00 +21°C° 0 mm 3 mps 763 mmHg 55%
    20:00 +20°C° 0 mm 3 mps 763 mmHg 57%
    21:00 +19°C° 0 mm 3 mps 763 mmHg 59%
    22:00 +18°C° 0 mm 3 mps 763 mmHg 61%
    23:00 +18°C° 0 mm 3 mps 763 mmHg 62%

    21 October, Monday

    Time Temperature Precipitation Wind Pressure Humidity
    00:00 +17°C° 0 mm 3 mps 763 mmHg 64%
    01:00 +16°C° 0 mm 2 mps 763 mmHg 65%
    02:00 +16°C° 0 mm 2 mps 763 mmHg 66%
    03:00 +15°C° 0 mm 2 mps 763 mmHg 67%
    04:00 +15°C° 0 mm 2 mps 763 mmHg 69%
    05:00 +14°C° 0 mm 2 mps 763 mmHg 70%
    06:00 +14°C° 0 mm 2 mps 763 mmHg 71%
    07:00 +15°C° 0 mm 2 mps 764 mmHg 67%
    08:00 +16°C° 0 mm 2 mps 764 mmHg 62%
    09:00 +17°C° 0 mm 3 mps 764 mmHg 58%
    10:00 +19°C° 0 mm 3 mps 764 mmHg 54%
    11:00 +20°C° 0 mm 3 mps 764 mmHg 49%
    12:00 +22°C° 0 mm 3 mps 764 mmHg 44%
    13:00 +23°C° 0 mm 4 mps 764 mmHg 42%
    14:00 +23°C° 0 mm 4 mps 763 mmHg 39%
    15:00 +25°C° 0 mm 4 mps 763 mmHg 36%
    16:00 +22°C° 0 mm 4 mps 763 mmHg 39%
    17:00 +21°C° 0 mm 4 mps 763 mmHg 42%
    18:00 +19°C° 0 mm 4 mps 763 mmHg 46%
    19:00 +19°C° 0 mm 4 mps 763 mmHg 48%
    20:00 +18°C° 0 mm 4 mps 763 mmHg 51%
    21:00 +17°C° 0 mm 4 mps 763 mmHg 53%
    22:00 +15°C° 0 mm 4 mps 763 mmHg 58%
    23:00 +16°C° 0 mm 3 mps 763 mmHg 62%

    22 October, Tuesday

    Time Temperature Precipitation Wind Pressure Humidity
    00:00 +14°C° 0 mm 3 mps 763 mmHg 66%
    01:00 +14°C° 0 mm 3 mps 763 mmHg 69%
    02:00 +13°C° 0 mm 3 mps 763 mmHg 72%
    03:00 +13°C° 0 mm 2 mps 763 mmHg 75%
    04:00 +13°C° 0 mm 2 mps 763 mmHg 77%
    05:00 +13°C° 0 mm 2 mps 763 mmHg 79%
    06:00 +12°C° 0 mm 2 mps 763 mmHg 81%
    07:00 +13°C° 0 mm 2 mps 763 mmHg 77%
    08:00 +14°C° 0 mm 2 mps 763 mmHg 73%
    09:00 +15°C° 0 mm 2 mps 763 mmHg 68%
    10:00 +17°C° 0 mm 3 mps 763 mmHg 63%
    11:00 +19°C° 0 mm 3 mps 763 mmHg 57%
    12:00 +20°C° 0 mm 3 mps 763 mmHg 52%
    13:00 +21°C° 0 mm 2 mps 763 mmHg 50%
    14:00 +23°C° 0 mm 2 mps 762 mmHg 48%
    15:00 +23°C° 0 mm 2 mps 762 mmHg 46%
    16:00 +21°C° 0 mm 2 mps 762 mmHg 51%
    17:00 +21°C° 0 mm 1 mps 762 mmHg 55%
    18:00 +19°C° 0 mm 1 mps 762 mmHg 60%
    19:00 +18°C° 0 mm 1 mps 762 mmHg 61%
    20:00 +17°C° 0 mm 2 mps 762 mmHg 63%
    21:00 +16°C° 0 mm 2 mps 762 mmHg 64%
    22:00 +15°C° 0 mm 1 mps 762 mmHg 67%
    23:00 +15°C° 0 mm 1 mps 762 mmHg 70%

    23 October, Wednesday

    Time Temperature Precipitation Wind Pressure Humidity
    00:00 +14°C° 0 mm 1 mps 762 mmHg 73%
    01:00 +14°C° 0 mm 1 mps 762 mmHg 75%
    02:00 +14°C° 0 mm 1 mps 762 mmHg 77%
    03:00 +13°C° 0 mm 1 mps 762 mmHg 79%
    04:00 +13°C° 0 mm 1 mps 762 mmHg 80%
    05:00 +13°C° 0 mm 1 mps 762 mmHg 81%
    06:00 +11°C° 0 mm 0 mps 763 mmHg 82%
    07:00 +12°C° 0 mm 0 mps 763 mmHg 77%
    08:00 +14°C° 0 mm 0 mps 763 mmHg 71%
    09:00 +15°C° 0 mm 0 mps 763 mmHg 66%
    10:00 +16°C° 0 mm 0 mps 763 mmHg 60%
    11:00 +20°C° 0 mm 1 mps 763 mmHg 54%
    12:00 +22°C° 0 mm 1 mps 763 mmHg 48%
    13:00 +22°C° 0 mm 1 mps 763 mmHg 45%
    14:00 +23°C° 0 mm 2 mps 762 mmHg 41%
    15:00 +23°C° 0 mm 2 mps 762 mmHg 38%
    16:00 +21°C° 0 mm 2 mps 762 mmHg 42%
    17:00 +20°C° 0 mm 1 mps 762 mmHg 46%
    18:00 +19°C° 0 mm 1 mps 762 mmHg 50%
    19:00 +18°C° 0 mm 1 mps 763 mmHg 53%
    20:00 +16°C° 0 mm 1 mps 763 mmHg 56%
    21:00 +16°C° 0 mm 1 mps 763 mmHg 58%
    22:00 +15°C° 0 mm 1 mps 763 mmHg 61%
    23:00 +15°C° 0 mm 1 mps 763 mmHg 64%
    Show more